Résultats de la compétition "Challenge PACA n°2" du 11-02-2007 organisée par le club 8405
     
  Télécharger le fichier CSV.  
     
     

 Circuit "A"

Licence Nom Prénom Temps CN
précédent
Score sur
la course
Différence
6613SCHIAVOEmilien1:14:47N/A5811N/A
1896ERDINGERFabrice1:15:24N/A5763N/A
4033ESTELAOlivier1:17:23N/A5615N/A
12779RAICHONSebastien1:17:30N/A5607N/A
12231ELIASPierre1:23:11N/A5224N/A
12621GROSJEANChristine1:29:26N/A4859N/A
13405SORIAUXLaurent1:30:01N/A4827N/A
1175PUECHJ-Baptiste1:30:25N/A4806N/A
12070VALOISLaurent1:30:45N/A4788N/A
7243ZINKEVICIUSVaidotas1:33:42N/A4638N/A
3684ROHARTRemi1:35:30N/A4550N/A
11643COURSONHubert1:37:44N/A4446N/A
6566GIBIATXavier1:39:45N/A4356N/A
15129BAVERELFabrice1:40:46N/A4312N/A
11709ROMIEUCyril1:40:59N/A4303N/A
11818MIQUELMarc1:42:14N/A4251N/A
16002BALPFabrice1:42:49N/A4226N/A
12652VIALARDJerome1:43:00N/A4219N/A
1634WESOLYDidier1:47:21N/A4048N/A
14955BARRALJ-Luc1:50:11N/A3944N/A
15855MUSCARNERALaurent1:52:13N/A3872N/A
5803COULONThibaud2:03:26N/A3520N/A
17859CHEVILLOTNicolas2:05:56N/A3451N/A
11243PARPALEric2:08:22N/A3385N/A
14172BRESSOULALYJeromeN/AN/A0N/A
15639HEBANTJeromeN/AN/A0N/A
9060LOPEZDorianN/AN/A0N/A
18103COUDERTEmmanuelN/AN/A0N/A

  Indice de confiance du circuit (moyenne des différences entre CN et score sur la course des 3 à 10 premiers) : 216




 Circuit "B"

Licence Nom Prénom Temps CN
précédent
Score sur
la course
Différence
1593DELENNEPierre1:08:49N/A5346N/A
13020REVEILLONAnthony1:10:59N/A5183N/A
11919REMOUETMichel1:14:31N/A4937N/A
2585LANGEARDVincent1:21:59N/A4487N/A
6896LOPEZSerge1:22:29N/A4460N/A
3545PELUSOBertrand1:23:01N/A4431N/A
11829DANIELEric1:23:21N/A4414N/A
9179ALESSANDRIPierre1:24:10N/A4371N/A
3546GIBIATFrederic1:27:26N/A4208N/A
11327GRAUERErwan1:29:50N/A4095N/A
16714MONCLARDJerome1:32:16N/A3987N/A
1658SPANIERLuc1:34:45N/A3883N/A
16337SENNELYJulian1:35:02N/A3871N/A
13019BORRELLIF-Xavier1:35:33N/A3850N/A
15590GOULESQUENicolas1:37:00N/A3793N/A
11332GUETINFrancois1:37:52N/A3759N/A
1592DELENNEMatthieu1:40:35N/A3657N/A
12425GIROLLETYves1:41:42N/A3617N/A
11174AZOCARArnaud1:47:43N/A3415N/A
15264DEBIOLPhilippe1:49:29N/A3360N/A
10074CREVOLAFrancois1:50:10N/A3339N/A
16930JACQDavy1:52:09N/A3280N/A
2191VALLINPascal1:53:52N/A3231N/A
15699CONSONNIChris1:55:42N/A3180N/A
10499LENNHOLMMorten1:56:10N/A3167N/A
10215VERDIERChristine1:57:53N/A3121N/A
13659ALAMAGNYPhilippe1:58:18N/A3110N/A
17520OPPEDISANOMichel1:59:43N/A3073N/A
12230FERRATOEric2:00:46N/A3046N/A
465LOPEZAlain2:01:55N/A3017N/A
8733COULIERFrancois2:05:02N/A2942N/A
16931BOYERPatrick2:06:24N/A2910N/A
1807CHAVAGNACPhilippe2:07:32N/A2885N/A
10367SIAUDPhilippe2:09:11N/A2848N/A
6909CHAVAGNACFlorian2:19:43N/A2633N/A
12213LEBARONEric2:19:55N/A2629N/A
16556BLONDELJ-Philippe2:27:15N/A2498N/A
18105GAUFILETLaurent2:29:24N/A2462N/A
17032DURBESSONPhilippe2:44:29N/A2237N/A
17882ZAHNJ-Marie3:15:37N/A1881N/A
11903PALAZZINIAngelo3:37:32N/A1691N/A
15636DEGROOTPatrickN/AN/A0N/A
13251LE LUDUECYannN/AN/A0N/A

  Indice de confiance du circuit (moyenne des différences entre CN et score sur la course des 3 à 10 premiers) : 118




 Circuit "C"

Licence Nom Prénom Temps CN
précédent
Score sur
la course
Différence
9521JANIAKMaxime0:53:57N/A4956N/A
7430BUHREAnders0:54:48N/A4879N/A
11047ANFOSSIDenis0:56:22N/A4743N/A
772DENAIXAlain1:00:31N/A4418N/A
7554TANNONathalie1:04:08N/A4169N/A
1635MAGDINIERGilles1:05:36N/A4076N/A
7524MACHEREYGilles1:06:01N/A4050N/A
13796LEPRETREMaximilien1:06:35N/A4015N/A
1819SANTAMARIAPatrick1:06:47N/A4003N/A
4855GARNIERLaura1:07:20N/A3971N/A
11321GRAUERJ-Luc1:07:47N/A3944N/A
1124BENEVELLOOlivier1:07:57N/A3935N/A
5168JACQUESSONGilles1:08:11N/A3921N/A
476MATHIEUMaurice1:10:40N/A3783N/A
12074GUSTAFSSONJohanna1:12:15N/A3701N/A
1631ROUXMichel1:13:07N/A3657N/A
14439BARREDALaure1:14:15N/A3601N/A
6373KERMABONGaelle1:15:07N/A3559N/A
16492CARRIEREOlivier1:17:05N/A3469N/A
10786GROSSESandrine1:17:07N/A3467N/A
11495DELENNEA-Francoise1:17:18N/A3459N/A
13799KROLHelene1:17:55N/A3431N/A
1746GEHINChristine1:18:14N/A3418N/A
18038GAZETNathalie1:18:16N/A3416N/A
17807LINDBERGCasper1:18:48N/A3393N/A
17102AILHAUDThomas1:19:47N/A3351N/A
1739CAMPOSJ-Pierre1:20:39N/A3315N/A
7481BELLIOTFanny1:21:23N/A3285N/A
17860GUSTAFSSONTommi1:22:39N/A3235N/A
10862HOULLIERIsabelle1:23:39N/A3196N/A
4272CLERCAnne1:27:11N/A3067N/A
480RIDEAUPhilippe1:27:54N/A3042N/A
1090ANDREJ-Daniel1:28:05N/A3035N/A
17100AILHAUDJ-Michel1:28:12N/A3031N/A
1761MOUSSIERECeline1:28:13N/A3031N/A
13850CAGNARDNathalie1:28:35N/A3018N/A
16589BERRIENIsabelle1:32:30N/A2890N/A
10073COULONAnnick1:33:09N/A2870N/A
2408PIERRONA-Christine1:36:33N/A2769N/A
15199ALLINCamille1:39:01N/A2700N/A
9855VIDALLucien1:41:17N/A2640N/A
16352BAUDOINJ-Paul1:42:01N/A2621N/A
15200MARGOTTEAUPhilippe1:42:32N/A2608N/A
1104SCHIAVOIrenee1:43:31N/A2583N/A
17805RINDEEdward1:44:46N/A2552N/A
12421SILVESTROBernard1:47:55N/A2478N/A
17549ROUVIEREHugo1:50:36N/A2417N/A
12026DEPHILIPPOJ-Luc1:51:49N/A2391N/A
2900GRASDEPOTFrancois1:51:55N/A2389N/A
17806YAGHILAlexis1:52:32N/A2376N/A
1547LIGNONViolaine1:54:47N/A2329N/A
17897TROISOEUFSPhilippe1:56:09N/A2302N/A
6324PAILHEIsabelle1:58:19N/A2260N/A
15638HEBANTCaroline2:00:39N/A2216N/A
13543JAUSEJ-PierreN/AN/A0N/A
9050FLINChristianN/AN/A0N/A
17790PICAZOJ-JacquesN/AN/A0N/A
4276SCHIAVOElodieN/AN/A0N/A
12651MIAILHEPascaleN/AN/A0N/A

  Indice de confiance du circuit (moyenne des différences entre CN et score sur la course des 3 à 10 premiers) : 112




 Circuit "D"

Licence Nom Prénom Temps CN
précédent
Score sur
la course
Différence
2782REMOUETM-Pierre0:49:15N/A4266N/A
1447ESCURETAndrea0:49:50N/A4216N/A
6442GEOFFROYGerard0:56:05N/A3746N/A
4156RICHAUDAlain0:57:14N/A3671N/A
7801MACHEREYLaurence0:57:25N/A3659N/A
1612MARCONSylvie0:59:59N/A3502N/A
1093ARNAUDSerge1:00:42N/A3461N/A
1152DELIFrancoise1:01:47N/A3400N/A
13662RUDLINGSuzie1:02:52N/A3342N/A
1174PUECHFrancoise1:03:11N/A3325N/A
1737BONRene1:07:30N/A3112N/A
5167BORRELLIBernadette1:08:27N/A3069N/A
516PINPatrick1:08:46N/A3055N/A
11322GRAUERIsabelle1:10:05N/A2998N/A
4853DENAIX-TORRESClaude1:12:39N/A2892N/A
13352BORRELLIMartine1:13:03N/A2876N/A
7435DOMANGEA-Lise1:13:36N/A2854N/A
16222OUVRARDKarine1:13:59N/A2840N/A
1591DELENNEBlandine1:14:02N/A2838N/A
11496DESCAMPSAurore1:14:22N/A2825N/A
13110MARGOTTEAUGhislaine1:14:59N/A2802N/A
14049GAVELLEChrystelle1:15:24N/A2786N/A
3547GIBIATDanielle1:16:18N/A2753N/A
17789PICAZOSophie1:16:26N/A2749N/A
17195AVONChristophe1:17:04N/A2726N/A
16146BITTERLINLaurence1:17:16N/A2719N/A
15390BARTHELEMYMarianne1:18:36N/A2673N/A
16715MONCLARDValerie1:21:19N/A2584N/A
10979LEMAIRENathalie1:25:17N/A2463N/A
14253PALUDJoel1:27:35N/A2399N/A
17101AILHAUDM-Pierre1:27:58N/A2388N/A
6443GEOFFROYNicole1:36:03N/A2187N/A
10790KOBRYNAngelique1:37:18N/A2159N/A
512BOCHETRoland1:37:20N/A2158N/A
1416CHAVERNACBruno1:41:15N/A2075N/A
9059GUINETLaurence1:41:49N/A2063N/A
6614SCHIAVOFlorence1:42:12N/A2056N/A
17094JUSSIAN-SOGNOSylvie1:44:11N/A2016N/A
12464FARRUGIAAmandine1:44:29N/A2011N/A
13193D'ADDETTAVeronique1:46:15N/A1977N/A
9051FLINFabienne1:46:38N/A1970N/A
13797LEPRETREIsabelle1:47:36N/A1952N/A
1098MULLERM-Anne2:01:12N/A1733N/A
18250DURBESSONMarie-pierre3:02:04N/A1154N/A
12211ROGEONHeleneN/AN/A0N/A
14235ANFOSSIGiuseppeN/AN/A0N/A
18410LAVILLEXavierN/AN/A0N/A

  Indice de confiance du circuit (moyenne des différences entre CN et score sur la course des 3 à 10 premiers) : 156




 Circuit "E"

Licence Nom Prénom Temps CN
précédent
Score sur
la course
Différence
10384DELENNEAdrien0:32:32N/A4422N/A
9062LOPEZRemi0:37:27N/A3841N/A
16550PAGEQuentin0:39:13N/A3668N/A
17863GUSTAFSSONJannina0:40:29N/A3553N/A
10368SIAUDMarius0:41:58N/A3428N/A
1156DELIMathilde0:43:20N/A3320N/A
14767CERTANOChloe0:47:14N/A3045N/A
11328GRAUERHeloise0:50:59N/A2821N/A
14856MONCLARDGuillaume0:52:54N/A2719N/A
16081DELANNOYP-Alexandre0:53:41N/A2680N/A
1599JOUVEColette0:58:05N/A2477N/A
17791PICAZOSilvain0:58:21N/A2465N/A
17861GUSTAFSSONJessica1:00:22N/A2383N/A
10383DELENNESybille1:02:34N/A2299N/A
1155DELIValentine1:03:25N/A2268N/A
5379PINGenevieve1:30:18N/A1593N/A
18688BUISSONGeneviève1:33:40N/A1536N/A
1628ROUXAnnie1:41:48N/A1413N/A
16634BAUDOINAnnie1:53:09N/A1271N/A
17643GALANTEMichele1:56:49N/A1231N/A
1417CHAVERNACChantal2:01:18N/A1186N/A
3918VERTGenevieve2:05:14N/A1149N/A
6540GUILLEMOTJeanne2:20:09N/A1026N/A
12463FARRUGIASylvain2:22:45N/A1008N/A
17526CARRIEREHugoN/AN/A0N/A
13550VERNESylvieN/AN/A0N/A
4252PELUSOBernadetteN/AN/A0N/A

  Indice de confiance du circuit (moyenne des différences entre CN et score sur la course des 3 à 10 premiers) : 330




 Circuit "F"

Licence Nom Prénom Temps CN
précédent
Score sur
la course
Différence
11904DELENNEWilliam0:28:52N/A3518N/A
16137ELIASPauline0:38:15N/A2655N/A
10369SIAUDUlysse0:40:24N/A2514N/A
14950SOGNOMartin0:41:17N/A2460N/A
16555PICAZOMarie0:46:35N/A2180N/A
13191D'ADDETTACecile0:51:22N/A1977N/A
17864GUSTAFSSONRasmus0:53:50N/A1886N/A
13800DELENNECamillia0:53:56N/A1883N/A
9506PELUSOSeverine0:55:04N/A1844N/A
17862GUSTAFSSONKristoffer0:57:06N/A1778N/A
12618FLINTimothe0:58:49N/A1727N/A
14367VALOISAdeline1:30:39N/A1120N/A
16547LAVILLEJulien1:33:13N/A1089N/A
17813ALIANEIdriss1:40:34N/A1010N/A
18257MAGNONRobinN/AN/A0N/A

  Indice de confiance du circuit (moyenne des différences entre CN et score sur la course des 3 à 10 premiers) : 289




 Circuit "J"

Licence Nom Prénom Temps CN
précédent
Score sur
la course
Différence
18395DIAZHugo0:30:04N/A2653N/A
15720GROSSERobin0:32:38N/A2444N/A
16984LANGEARDElliot0:36:39N/A2176N/A
17388PAPADOPOULOSNicolas0:37:48N/A2110N/A
18252THOMASGuillaume0:38:58N/A2047N/A
16985LANGEARDVictoria0:40:29N/A1970N/A
17865GUSTAFSSONFreia0:41:03N/A1943N/A
16147CERTANOLuke0:42:54N/A1859N/A
18396GROSSYJulien0:43:10N/A1848N/A
17763ELIASGuilhem0:43:43N/A1825N/A
17550JULLIANPierre Francois0:45:09N/A1767N/A
15719GROSSEFlorian0:46:02N/A1733N/A
16675RAICHONMia0:59:12N/A1347N/A
17030DELENNEJoanna1:09:41N/A1145N/A
18249DELENNETommy1:12:20N/A1103N/A
18763ALAMAGNYMattéo1:18:00N/A1023N/A
18394LIEFFROYMarie1:21:26N/A980N/A

  Indice de confiance du circuit (moyenne des différences entre CN et score sur la course des 3 à 10 premiers) : 165






 Retour